Location: Hurecourt
(47.9030°N, 6.0653°E)
Time: 21:01:47
(UTC+00:00)

Cosmos 1544 - Pass Details

Date: 14 July 2020
Orbit: 473 x 490 km, 82.5° (Epoch: 14 August)

Event Time Altitude Azimuth Distance (km) Brightness Sun altitude
Exits shadow 03:00:06 - 186° (S) 2,138 5.9 -7.5°
Reaches altitude 10° 03:01:17 10° 186° (S) 1,637 5.3 -7.4°
Maximum altitude 03:04:52 84° 99° (E) 483 3.1 -6.9°
Drops below altitude 10° 03:08:29 10° 11° (N) 1,653 6.7 -6.5°
Sets 03:10:35 0° 10° (N) 2,538 7.7 -6.2°
